Satellite: NOAA-11
Catalog number: 19531
Epoch time:      08267.04026506
Element set:     330
Inclination:      098.7956 deg
RA of node:       354.9914 deg
Eccentricity:    0.0011934
Arg of perigee:   146.4067 deg
Mean anomaly:     213.7868 deg
Mean motion:   14.14876403 rev/day
Decay rate:      -2.32e-06 rev/day^2
Epoch rev:            3174
Checksum:              304

Satellite: NOAA-12
Catalog number: 21263
Epoch time:      08267.60615215
Element set:     848
Inclination:      098.7717 deg
RA of node:       269.5711 deg
Eccentricity:    0.0011942
Arg of perigee:   195.9118 deg
Mean anomaly:     164.1688 deg
Mean motion:   14.25546988 rev/day
Decay rate:        1.0e-07 rev/day^2
Epoch rev:           90241
Checksum:              321

Satellite: MET-3/5
Catalog number: 21655
Epoch time:      08267.57342534
Element set:     491
Inclination:      082.5492 deg
RA of node:       034.8560 deg
Eccentricity:    0.0014177
Arg of perigee:   122.9231 deg
Mean anomaly:     237.3255 deg
Mean motion:   13.17016341 rev/day
Decay rate:        5.1e-07 rev/day^2
Epoch rev:           82253
Checksum:              284

Satellite: MET-2/21
Catalog number: 22782
Epoch time:      08267.77382259
Element set:     257
Inclination:      082.5495 deg
RA of node:       033.3530 deg
Eccentricity:    0.0023077
Arg of perigee:   017.4590 deg
Mean anomaly:     342.7376 deg
Mean motion:   13.83632061 rev/day
Decay rate:       1.72e-06 rev/day^2
Epoch rev:           76076
Checksum:              312

Satellite: OKEAN-4
Catalog number: 23317
Epoch time:      08266.84917760
Element set:     701
Inclination:      082.5388 deg
RA of node:       223.9304 deg
Eccentricity:    0.0022417
Arg of perigee:   160.8572 deg
Mean anomaly:     199.3513 deg
Mean motion:   14.82635840 rev/day
Decay rate:       1.00e-06 rev/day^2
Epoch rev:           75275
Checksum:              303

Satellite: NOAA-14
Catalog number: 23455
Epoch time:      08267.42754587
Element set:     318
Inclination:      098.9374 deg
RA of node:       339.6869 deg
Eccentricity:    0.0008912
Arg of perigee:   221.9103 deg
Mean anomaly:     138.1417 deg
Mean motion:   14.13747193 rev/day
Decay rate:      -2.22e-06 rev/day^2
Epoch rev:           70823
Checksum:              325

Satellite: NOAA-15
Catalog number: 25338
Epoch time:      08267.04638586
Element set:     632
Inclination:      098.5639 deg
RA of node:       256.4574 deg
Eccentricity:    0.0011586
Arg of perigee:   113.9157 deg
Mean anomaly:     246.3227 deg
Mean motion:   14.24724703 rev/day
Decay rate:      -1.10e-06 rev/day^2
Epoch rev:           53873
Checksum:              321

Satellite: RESURS
Catalog number: 25394
Epoch time:      08267.53845307
Element set:      29
Inclination:      098.3769 deg
RA of node:       306.9710 deg
Eccentricity:    0.0000820
Arg of perigee:   309.2278 deg
Mean anomaly:     050.8834 deg
Mean motion:   14.24170777 rev/day
Decay rate:       -5.0e-08 rev/day^2
Epoch rev:           53044
Checksum:              302

Satellite: FENGYUN1
Catalog number: 25730
Epoch time:      08266.92820151
Element set:    0624
Inclination:      098.7304 deg
RA of node:       239.4351 deg
Eccentricity:    0.0019642
Arg of perigee:   252.8462 deg
Mean anomaly:     107.0558 deg
Mean motion:   14.07782662 rev/day
Decay rate:       3.34e-06 rev/day^2
Epoch rev:           48271
Checksum:              299

Satellite: OKEAN-0
Catalog number: 25860
Epoch time:      08266.49295634
Element set:    0480
Inclination:      097.7596 deg
RA of node:       252.7805 deg
Eccentricity:    0.0001204
Arg of perigee:   035.0520 deg
Mean anomaly:     325.0775 deg
Mean motion:   14.73536346 rev/day
Decay rate:        3.0e-08 rev/day^2
Epoch rev:           49372
Checksum:              302

Satellite: NOAA-16
Catalog number: 26536
Epoch time:      08267.03162978
Element set:     106
Inclination:      099.1658 deg
RA of node:       258.3932 deg
Eccentricity:    0.0009926
Arg of perigee:   314.5570 deg
Mean anomaly:     045.4808 deg
Mean motion:   14.12498025 rev/day
Decay rate:       2.61e-06 rev/day^2
Epoch rev:           41258
Checksum:              320

Satellite: NOAA-17
Catalog number: 27453
Epoch time:      08267.42339356
Element set:     104
Inclination:      098.5237 deg
RA of node:       329.1578 deg
Eccentricity:    0.0011966
Arg of perigee:   177.3107 deg
Mean anomaly:     182.8184 deg
Mean motion:   14.24004671 rev/day
Decay rate:       2.05e-06 rev/day^2
Epoch rev:           32478
Checksum:              312

Satellite: NOAA-18
Catalog number: 28654
Epoch time:      08267.46480652
Element set:     590
Inclination:      098.8737 deg
RA of node:       207.2107 deg
Eccentricity:    0.0015092
Arg of perigee:   038.7823 deg
Mean anomaly:     321.4425 deg
Mean motion:   14.11195840 rev/day
Decay rate:       4.23e-06 rev/day^2
Epoch rev:           17233
Checksum:              305

/EX
SB KEPS @ AMSAT  $ORB08267.M
Orbital Elements  08267.MISC

HR AMSAT ORBITAL ELEMENTS FOR MANNED AND MISCELLANEOUS SATELLITES
FROM WA5QGD FORT WORTH,TX September 23, 2008
Send Subscribe/unsubscribe to KEPS at 
http://www.amsat.org/mailman/listinfo/keps
BID: ORB08267.M
TO ALL RADIO AMATEURS BT

Satellite: HUBBLE
Catalog number: 20580
Epoch time:      08267.52461561
Element set:     226
Inclination:      028.4682 deg
RA of node:       041.8201 deg
Eccentricity:    0.0003460
Arg of perigee:   345.8625 deg
Mean anomaly:     014.1867 deg
Mean motion:   15.00409418 rev/day
Decay rate:       3.02e-06 rev/day^2
Epoch rev:           80976
Checksum:              273

Satellite: PO-34
Catalog number: 25520
Epoch time:      08266.94403745
Element set:    0087
Inclination:      028.4605 deg
RA of node:       244.2887 deg
Eccentricity:    0.0005369
Arg of perigee:   266.9197 deg
Mean anomaly:     093.0787 deg
Mean motion:   15.17231276 rev/day
Decay rate:       4.25e-06 rev/day^2
Epoch rev:           54802
Checksum:              326

Satellite: ISS
Catalog number: 25544
Epoch time:      08267.50681949
Element set:     311
Inclination:      051.6420 deg
RA of node:       232.1566 deg
Eccentricity:    0.0006907
Arg of perigee:   138.2052 deg
Mean anomaly:     325.5286 deg
Mean motion:   15.72162260 rev/day
Decay rate:      7.473e-05 rev/day^2
Epoch rev:           56400
Checksum:              283

Satellite: CO-58
Catalog number: 28895
Epoch time:      08266.25383114
Element set:    0127
Inclination:      098.0831 deg
RA of node:       157.9074 deg
Eccentricity:    0.0019010
Arg of perigee:   105.0170 deg
Mean anomaly:     255.3121 deg
Mean motion:   14.59697647 rev/day
Decay rate:        7.1e-07 rev/day^2
Epoch rev:           15464
Checksum:              307

Satellite: FALCON
Catalog number: 30776
Epoch time:      08266.49043882
Element set:     402
Inclination:      035.4348 deg
RA of node:       283.3443 deg
Eccentricity:    0.0000217
Arg of perigee:   158.8793 deg
Mean anomaly:     201.1932 deg
Mean motion:   15.03055626 rev/day
Decay rate:       3.15e-06 rev/day^2
Epoch rev:            8479
Checksum:              291

Satellite: MAST
Catalog number: 31126
Epoch time:      08267.61827084
Element set:     423
Inclination:      098.0296 deg
RA of node:       328.0692 deg
Eccentricity:    0.0095079
Arg of perigee:   027.6290 deg
Mean anomaly:     332.9928 deg
Mean motion:   14.53445850 rev/day
Decay rate:       -4.9e-07 rev/day^2
Epoch rev:            7631
Checksum:              317

Satellite: CAPE1
Catalog number: 31130
Epoch time:      08266.84077540
Element set:    0419
Inclination:      098.0315 deg
RA of node:       326.1111 deg
Eccentricity:    0.0103488
Arg of perigee:   033.6052 deg
Mean anomaly:     327.1635 deg
Mean motion:   14.51991796 rev/day
Decay rate:      -1.29e-06 rev/day^2
Epoch rev:           07589
Checksum:              294

Satellite: COMPASS
Catalog number: 32787
Epoch time:      08266.64969304
Element set:    0172
Inclination:      097.9785 deg
RA of node:       326.2162 deg
Eccentricity:    0.0015971
Arg of perigee:   177.4556 deg
Mean anomaly:     182.6740 deg
Mean motion:   14.81462651 rev/day
Decay rate:        3.8e-07 rev/day^2
Epoch rev:           02183
Checksum:              326

Satellite: AAUSAT2
Catalog number: 32788
Epoch time:      08266.84144509
Element set:    0157
Inclination:      097.9800 deg
RA of node:       326.4262 deg
Eccentricity:    0.0015664
Arg of perigee:   176.8103 deg
Mean anomaly:     183.3167 deg
Mean motion:   14.81573070 rev/day
Decay rate:      -1.39e-06 rev/day^2
Epoch rev:           02186
Checksum:              311

Satellite: DO-64
Catalog number: 32789
Epoch time:      08266.92061082
Element set:    0171
Inclination:      097.9831 deg
RA of node:       326.5403 deg
Eccentricity:    0.0015848
Arg of perigee:   175.9931 deg
Mean anomaly:     184.1414 deg
Mean motion:   14.81476528 rev/day
Decay rate:       1.68e-06 rev/day^2
Epoch rev:           02187
Checksum:              331

Satellite: CO-66
Catalog number: 32791
Epoch time:      08266.66381345
Element set:    0157
Inclination:      097.9822 deg
RA of node:       326.2494 deg
Eccentricity:    0.0016203
Arg of perigee:   175.2576 deg
Mean anomaly:     184.8791 deg
Mean motion:   14.81316303 rev/day
Decay rate:       1.51e-06 rev/day^2
Epoch rev:           02180
Checksum:              313

Satellite: RS-30
Catalog number: 32953
Epoch time:      08266.56128479
Element set:    0116
Inclination:      082.4972 deg
RA of node:       063.0255 deg
Eccentricity:    0.0019615
Arg of perigee:   044.9093 deg
Mean anomaly:     315.3577 deg
Mean motion:   12.42997623 rev/day
Decay rate:        1.0e-07 rev/day^2
Epoch rev:           01514
Checksum:              300

/EX





More information about the Keps mailing list